Вернуться в каталог

COSMOS 374 DEB

АктивенUNKNOWN
NORAD 5076·DEBRIS·🇷🇺 Russia

Запущен Oct 23, 1970 с Baikonur Cosmodrome

Loading…

Ближайшие Пролёты (ближайшие 24 часа)

TLE

СвежийSource: Space-Track

Эпоха: Sep 14, 2026, 00:59 UTC

1 05076U 70089AP  26257.04144720  .00000068  00000-0  77248-4 0  9992
2 05076  62.8042 278.3567 0965151 218.9169 133.8405 12.87512911607131

Отслеживайте COSMOS 374 DEB в реальном времени с AllMySat

Download on the App Store